Location: Helion Bumpstead
(52.0500°N, 0.4000°E)
Time: 22:01:35
(UTC+00:00)

USA 234 - Pass Details

Date: 15 November 2025
Orbit: 1100 x 1107 km, 123.0° (Epoch: 02 December)

Event Time Altitude Azimuth Distance (km) Brightness Sun altitude
Rises 03:59:50 0° 117° (ESE) 3,922 6.9 -30.3°
Reaches altitude 10° 04:02:19 10° 118° (ESE) 2,965 6.1 -29.9°
Maximum altitude 04:08:53 87° 209° (SSW) 1,113 3.1 -28.9°
Enters shadow 04:09:44 71° 290° (WNW) 1,168 3.1 -28.8°
